Theta_e
311 313 313 314 315 315 314 313 314 315 313 312 312 313 313 313 313 313 313 312 311 309 310 311 311 312 312 312 312 313 313 313 313 313 313 313 313 313 313 314 314 313 311 312 313 313 312 312 312 312 312 312 312 312 312 312 312 312 311 312 312 312 312 312 312 312 312 312 312 313 313 313 313 313 313 314 314 314 314 314 314 313 313 312 311 309
310 313 314 314 315 314 313 313 312 312 311 311 312 312 313 313 313 313 313 312 310 309 311 311 311 312 312 312 312 313 312 312 313 314 313 313 313 314 314 314 313 312 312 313 313 312 312 312 312 312 312 312 311 311 311 311 311 311 311 311 311 311 311 311 311 311 311 311 312 312 312 313 313 313 313 313 313 314 313 314 314 313 313 313 312 310
311 313 313 314 314 311 310 309 310 310 311 312 312 312 313 313 313 313 312 311 309 308 311 311 311 311 311 311 312 313 313 313 313 313 313 313 314 314 314 313 311 312 313 313 312 312 312 313 312 312 312 311 312 311 311 311 311 311 311 311 310 310 310 310 310 310 310 310 310 311 311 311 312 312 312 312 313 313 313 313 313 313 313 313 312 311
314 313 313 314 313 310 310 309 308 310 311 311 312 313 313 313 313 313 311 309 308 308 310 310 310 311 312 313 313 313 313 313 313 313 313 314 314 313 312 311 311 313 312 311 312 313 313 313 313 312 312 312 312 312 312 312 312 311 311 311 311 310 310 309 309 309 309 309 309 309 310 310 310 310 311 311 312 312 312 312 313 313 313 313 312 311
315 312 310 311 311 310 311 310 309 311 312 313 313 313 313 314 313 313 312 310 310 310 309 309 312 314 315 315 315 314 312 312 313 313 314 314 313 312 311 311 312 312 311 311 312 312 312 312 312 312 312 312 313 313 313 313 313 312 312 311 311 311 310 310 309 309 308 308 309 309 309 309 309 309 310 310 310 311 311 312 312 312 312 312 312 312
314 311 309 310 310 309 311 311 311 312 312 314 314 313 312 312 312 312 313 311 311 313 310 310 314 316 315 315 315 315 314 315 315 314 314 314 312 311 311 311 311 311 311 311 311 311 311 311 312 312 312 313 313 313 313 313 313 313 312 312 311 310 310 310 310 309 309 308 308 308 308 308 308 309 309 310 310 310 311 311 311 312 312 312 312 312
311 309 308 311 311 311 310 310 311 312 312 313 314 313 312 311 312 312 312 312 312 314 310 309 313 315 315 315 315 315 315 315 317 316 315 314 312 311 311 310 310 310 310 310 309 309 310 310 311 312 313 313 313 313 313 313 313 313 313 313 312 311 310 310 310 309 309 309 308 308 308 308 308 309 309 309 309 309 310 310 310 311 311 311 311 311
310 309 308 310 311 311 310 311 312 311 311 314 315 314 312 311 312 312 311 311 312 312 310 310 311 313 315 315 314 314 315 315 317 317 316 314 311 310 310 309 310 310 309 309 308 308 308 309 310 311 312 313 313 313 313 313 313 313 313 313 312 312 311 310 309 309 309 308 308 308 308 308 308 308 308 308 308 308 308 309 309 309 309 310 310 310
309 311 311 310 311 311 311 313 313 311 311 313 311 309 310 310 311 311 311 311 310 310 312 312 311 314 316 315 313 313 314 316 317 316 315 313 311 310 309 308 308 308 307 307 307 306 306 307 308 310 312 313 313 313 313 313 313 312 312 312 312 312 312 310 309 309 308 308 307 307 307 307 307 307 307 307 308 308 308 308 308 308 308 308 309 309
309 309 309 310 312 312 312 311 310 311 312 310 308 308 309 309 309 309 310 311 310 311 314 313 312 315 318 316 314 313 314 316 317 315 312 310 310 309 309 308 306 306 306 306 305 305 306 306 308 310 311 312 312 312 312 312 313 312 312 312 311 311 311 311 310 309 308 307 307 306 306 306 306 306 306 306 306 307 307 307 307 307 307 307 308 308
307 305 306 309 311 310 310 307 305 309 309 307 309 311 311 310 309 309 309 310 311 315 316 314 313 315 317 317 316 315 314 314 314 314 312 309 308 308 307 306 305 304 305 304 304 305 305 306 308 309 310 310 311 311 312 312 312 312 312 312 311 310 310 310 310 310 308 307 306 305 305 305 305 305 305 305 305 305 306 306 306 306 306 306 306 307
308 306 308 309 308 307 309 308 305 306 306 307 310 310 311 312 310 310 310 310 314 318 316 312 313 315 316 317 315 314 314 312 312 313 312 309 307 306 305 304 303 302 302 303 304 305 305 306 307 308 308 308 309 309 310 311 311 311 312 311 311 310 309 309 309 309 309 308 306 305 304 304 304 304 304 304 304 304 304 305 305 305 305 305 306 306
312 311 310 309 307 307 310 310 308 307 307 308 309 310 312 314 315 316 315 313 316 317 312 309 312 313 315 316 314 314 315 312 310 310 310 308 306 305 303 302 301 301 302 303 303 304 304 305 305 305 306 307 307 307 308 309 310 310 310 310 309 309 309 309 309 309 308 308 307 306 305 303 302 302 303 303 303 303 303 303 303 304 304 304 305 305
316 315 310 309 309 308 309 310 311 311 309 309 310 311 314 317 319 321 319 316 318 317 309 307 311 313 314 315 314 315 315 311 308 308 307 306 305 303 302 300 300 301 301 301 302 303 303 303 303 303 304 305 305 306 306 307 307 308 309 309 308 308 309 309 309 308 308 307 307 306 305 304 303 302 302 302 302 302 303 303 303 303 303 303 304 304
318 319 313 312 313 310 309 311 315 315 310 309 311 312 314 317 321 322 321 320 321 320 312 308 312 315 316 315 312 312 312 308 306 306 304 304 303 302 300 299 299 299 300 300 300 301 301 302 302 302 302 303 303 304 304 305 305 306 306 307 307 308 309 309 309 308 307 307 306 306 305 304 303 303 302 302 301 301 302 302 302 302 302 303 303 303
316 320 317 313 311 309 310 311 314 317 314 311 311 311 312 317 321 320 319 320 319 319 316 313 314 316 315 314 312 312 310 307 306 305 303 303 301 300 299 297 297 297 299 299 299 299 300 300 300 301 301 301 302 302 302 302 302 303 304 305 306 306 307 308 308 308 307 306 306 305 305 304 304 304 303 303 302 301 301 301 301 302 302 302 302 302
318 320 318 311 307 308 310 310 311 315 316 311 309 312 313 315 319 317 317 319 317 317 318 317 316 316 316 316 314 312 310 307 305 303 302 301 300 299 298 296 295 296 297 297 298 298 298 298 299 299 299 299 299 300 299 300 300 300 301 301 303 304 306 307 307 307 307 306 306 305 305 305 305 305 305 304 303 302 301 300 300 301 301 301 301 302
319 320 318 313 312 310 306 307 309 310 311 311 311 314 314 313 314 313 314 317 317 317 319 318 318 318 319 318 313 312 311 309 305 302 300 299 298 298 296 295 294 295 296 297 297 297 298 298 298 298 298 298 298 298 297 297 298 298 299 300 302 302 303 303 304 304 305 305 305 305 304 304 304 304 304 304 303 303 302 302 301 300 300 301 301 300
317 319 319 317 316 312 304 306 311 308 308 310 311 312 313 313 314 313 314 315 317 319 319 318 318 318 318 318 314 313 312 309 305 301 299 297 297 296 295 294 294 295 296 296 296 296 296 296 297 297 298 298 298 298 298 298 298 299 300 300 301 301 300 300 301 302 302 303 303 303 303 303 302 302 303 304 303 303 303 303 303 301 301 300 300 300
314 317 319 316 314 311 307 309 312 311 309 308 308 309 310 312 314 314 313 315 317 319 319 320 320 319 318 317 315 312 309 307 304 300 297 296 296 295 294 294 293 293 293 293 293 293 294 295 295 295 295 296 296 297 297 298 298 299 299 299 299 299 299 299 299 299 300 300 301 302 302 303 302 302 303 303 303 302 302 303 303 303 302 302 301 300
312 314 317 316 312 312 312 311 312 314 312 309 309 310 309 310 313 313 313 314 316 317 319 320 320 320 317 312 310 308 305 303 302 299 297 297 296 295 294 293 293 293 293 293 293 294 294 294 294 294 294 294 295 295 296 296 296 297 297 297 297 297 297 297 297 297 297 298 299 299 300 301 302 302 302 302 302 302 302 302 302 303 303 303 303 302
312 313 314 315 314 313 315 314 312 313 314 312 312 311 312 313 313 313 314 315 315 315 317 317 318 320 315 308 305 303 301 301 299 298 298 297 296 295 294 293 293 292 293 293 294 294 294 294 294 294 295 295 295 295 295 295 295 296 296 296 296 295 295 295 295 295 295 296 296 297 297 299 300 301 301 302 302 302 302 302 301 301 302 302 303 303
308 309 311 313 314 314 316 314 311 311 312 314 314 314 316 317 314 314 316 317 316 315 316 316 318 318 310 303 302 301 300 300 299 298 298 296 295 295 294 293 293 293 293 293 294 294 295 295 295 295 295 295 295 295 295 296 295 295 295 295 295 295 295 295 295 295 295 295 295 295 295 296 296 298 299 300 301 301 302 302 301 301 300 300 300 301
307 310 312 313 314 315 315 313 310 310 311 313 314 313 315 316 315 315 314 314 315 316 317 317 318 318 308 300 300 299 298 298 297 297 297 296 295 294 293 293 293 294 294 294 295 295 295 295 295 295 296 296 296 296 296 296 295 295 295 295 296 296 296 296 295 295 295 295 295 294 294 295 295 295 296 297 298 299 300 301 301 301 300 300 299 299
310 312 313 313 314 315 315 314 313 312 311 311 312 312 312 313 313 313 312 311 312 315 316 316 317 318 309 299 298 299 297 297 296 295 295 295 294 293 293 292 292 293 293 294 294 294 295 295 295 295 295 295 295 295 295 295 294 294 294 294 294 295 294 294 294 294 294 294 294 295 295 295 295 296 296 295 295 296 297 298 299 300 300 300 300 299
310 311 312 313 314 314 315 315 314 312 310 310 310 310 310 310 310 311 311 312 313 314 315 314 314 315 309 301 300 300 297 296 295 294 294 294 294 293 293 293 292 292 292 292 292 292 293 293 293 293 293 292 292 292 292 292 292 292 292 291 292 292 292 292 292 293 293 293 293 294 294 294 295 295 295 295 295 295 295 295 296 297 298 299 299 299
308 310 311 312 312 312 313 313 311 308 308 309 310 310 310 308 308 308 309 311 312 311 312 312 311 312 309 307 306 305 300 296 295 294 294 294 293 293 293 292 291 291 291 291 290 290 290 290 290 290 290 290 290 290 290 290 290 290 290 290 290 290 290 290 290 290 291 291 291 291 291 292 292 292 292 292 293 294 294 294 294 294 295 296 297 298
307 308 309 311 311 311 311 310 307 305 305 307 308 308 307 307 306 306 307 308 308 308 309 309 309 309 308 307 308 306 301 297 295 295 294 294 293 293 292 292 291 290 290 290 290 290 290 289 289 289 289 289 289 289 289 289 289 289 289 289 289 289 289 289 289 289 289 289 289 289 289 289 290 290 290 290 290 291 292 293 293 293 294 294 294 295
306 306 307 308 308 308 307 306 305 304 304 304 304 304 304 304 304 304 304 305 305 306 306 306 306 306 306 306 306 301 297 295 295 294 294 294 293 293 293 292 292 291 290 289 289 289 289 289 289 289 289 289 289 289 289 288 288 288 288 288 288 288 288 288 288 288 288 288 288 288 288 288 288 288 289 289 289 289 290 290 291 292 292 293 293 293
304 305 305 305 305 305 304 304 304 303 303 302 302 302 302 302 302 302 302 302 302 303 303 303 303 303 303 304 301 297 294 294 294 294 294 294 293 293 293 293 293 292 290 289 289 289 289 289 289 289 289 289 289 289 288 288 288 288 288 288 288 288 288 288 288 288 288 288 288 288 288 288 288 288 287 288 288 288 288 288 289 289 290 291 291 292
303 304 303 302 302 303 303 303 303 302 301 301 301 301 300 300 300 300 300 301 300 301 301 300 301 302 301 298 296 295 294 294 293 293 293 293 293 293 293 293 293 293 291 290 290 289 289 289 289 289 289 289 289 289 288 288 288 288 288 288 288 288 287 287 287 287 287 287 287 287 287 287 287 287 287 287 287 287 287 287 287 288 288 288 289 290
301 302 301 301 302 302 302 302 301 300 299 299 299 299 299 299 299 299 300 300 300 300 300 300 301 301 298 294 293 294 293 293 293 293 293 293 293 293 293 293 293 293 292 291 290 289 289 289 289 289 289 289 289 289 288 288 288 288 288 288 288 288 287 287 287 287 287 287 287 287 287 287 287 287 287 287 287 287 287 286 286 287 287 287 287 288
300 300 300 301 301 301 301 300 297 297 297 297 298 298 298 298 298 299 299 299 299 299 299 299 299 298 296 294 293 293 293 293 292 292 292 292 292 292 292 292 292 292 292 291 290 289 289 289 289 289 289 289 289 289 289 288 288 288 288 288 288 288 288 287 287 287 287 287 287 287 287 287 287 287 287 287 287 287 286 286 286 286 286 286 286 287
299 299 299 300 300 300 299 297 295 296 297 298 298 298 298 298 298 298 297 298 298 298 298 297 296 294 294 294 292 291 292 292 291 292 291 291 291 292 292 291 291 291 291 291 290 289 289 289 289 289 289 289 289 289 289 288 288 288 287 287 287 287 287 287 287 287 287 287 287 287 286 286 286 286 286 286 286 286 286 286 286 286 286 286 286 286
297 297 297 298 298 297 296 295 295 297 297 296 296 296 296 297 297 297 297 297 298 297 297 296 295 293 293 293 292 292 292 291 291 291 291 291 291 291 291 291 290 290 290 291 290 290 289 289 289 289 289 289 289 289 288 288 288 288 287 287 287 287 286 286 286 287 287 287 287 287 286 286 286 286 286 286 286 286 286 286 286 286 286 286 286 286
296 295 295 295 295 295 295 295 296 296 295 294 295 295 295 295 296 296 297 297 296 296 297 297 295 293 293 293 292 292 292 292 292 291 290 290 290 290 290 290 290 290 290 290 290 290 290 289 289 289 289 289 289 289 289 288 288 288 288 287 287 287 286 286 286 286 286 286 286 286 286 286 286 286 286 286 286 286 286 286 286 286 286 286 286 286
295 295 294 294 295 295 294 295 295 295 294 294 295 295 295 295 295 295 296 296 295 295 296 296 294 293 293 292 292 292 292 292 292 292 291 291 291 290 290 289 289 289 290 290 290 290 290 290 290 289 289 289 289 289 289 288 288 288 287 287 287 286 286 286 286 285 285 285 285 285 285 285 285 285 286 286 286 286 286 285 286 286 286 285 285 286
294 295 294 294 295 294 293 294 295 294 294 294 294 294 294 294 294 294 294 294 294 294 293 292 292 292 292 291 291 292 292 291 291 291 292 291 291 290 289 289 289 289 289 289 289 290 290 291 290 290 289 289 289 289 289 288 287 287 286 286 286 285 286 286 286 285 285 284 284 284 284 284 284 284 284 285 285 285 285 285 285 285 285 285 285 285
293 294 294 294 295 295 294 295 295 294 294 294 294 294 293 292 293 294 293 293 293 291 291 291 290 291 291 291 291 291 291 290 290 291 292 291 290 290 289 289 289 289 289 289 289 289 290 290 290 289 289 289 289 289 288 287 286 285 285 285 284 284 285 285 284 284 284 283 283 283 283 282 282 283 283 283 284 284 284 284 285 285 285 284 284 284
292 294 294 294 295 294 294 295 295 294 294 295 295 294 292 292 293 293 292 292 290 289 290 291 290 290 291 290 290 290 290 290 290 291 291 290 290 289 289 288 289 289 289 289 289 289 289 289 289 289 289 289 289 287 286 286 285 285 284 284 283 283 283 283 282 282 281 281 281 281 281 281 281 281 281 282 282 282 283 283 284 284 284 284 284 284
290 291 292 293 294 294 294 294 294 294 295 295 295 294 292 291 292 292 292 291 289 289 290 290 289 290 290 290 290 290 290 290 290 290 290 289 289 289 288 288 288 288 288 288 288 288 288 288 288 288 288 288 287 287 286 285 284 284 284 283 283 283 282 280 280 280 280 280 280 280 280 280 280 280 281 281 281 281 281 282 282 282 283 283 283 283
289 289 290 290 292 293 293 294 293 293 294 294 294 293 291 291 292 292 292 290 289 290 290 289 289 289 289 289 290 290 290 290 289 289 289 288 288 288 288 288 288 288 288 288 288 287 287 287 287 287 287 287 287 286 286 285 284 284 283 282 282 281 280 279 279 278 278 278 278 278 279 279 279 279 279 279 279 279 280 281 281 281 281 282 282 283
290 290 290 290 291 291 291 292 292 292 293 292 292 291 291 292 293 292 291 290 290 290 290 289 289 289 289 289 289 289 289 289 288 288 288 288 288 288 288 287 287 287 287 287 286 286 286 286 286 286 286 286 285 285 284 283 282 282 281 280 280 279 278 278 277 276 276 277 277 277 277 277 277 277 277 277 277 277 277 279 279 279 280 280 281 281
290 290 290 290 290 290 290 291 292 292 292 291 291 291 292 292 292 291 290 291 290 290 290 290 289 289 288 288 288 288 288 288 287 287 287 288 288 287 287 286 286 285 285 285 285 285 284 284 284 284 284 284 283 282 281 280 278 278 278 277 276 276 275 275 275 275 275 275 275 275 275 274 274 274 274 274 274 274 274 276 276 276 277 278 278 278
291 291 291 290 291 291 291 291 291 291 291 291 291 291 291 291 291 290 290 290 290 290 289 289 289 288 288 288 287 287 287 287 287 287 287 286 286 286 285 285 284 284 283 283 283 283 282 282 282 282 282 282 281 280 279 278 275 275 275 274 273 273 273 273 274 273 273 273 273 273 273 272 272 272 272 272 272 271 272 272 272 273 274 275 275 276
291 291 290 290 291 291 291 291 291 291 291 291 291 291 290 290 290 290 290 290 289 289 289 288 288 288 287 287 286 286 286 286 286 286 285 285 284 284 284 284 283 282 282 281 281 281 281 281 281 280 280 281 280 278 278 276 274 273 273 273 272 271 271 271 271 271 271 271 271 271 271 270 270 270 270 270 270 270 270 270 270 270 271 271 272 273
290 290 289 290 290 290 290 291 291 291 291 291 290 290 290 290 290 290 289 289 289 289 288 288 287 287 286 286 285 285 284 284 284 284 284 283 283 283 282 282 282 281 280 280 280 280 280 279 279 278 278 278 278 277 276 275 274 273 272 272 271 270 270 269 269 268 268 268 267 267 267 266 266 267 267 267 267 268 268 268 268 268 269 269 270 271
290 290 289 289 290 290 290 290 291 291 291 290 290 290 290 290 290 289 289 289 289 288 287 287 286 286 285 285 284 284 283 283 282 283 283 282 281 281 281 281 281 280 280 280 279 279 278 277 276 276 276 276 275 274 274 274 274 273 272 271 270 268 267 267 266 266 265 265 264 263 263 263 263 264 264 264 265 265 265 266 266 267 267 268 269 269
290 289 288 289 289 290 290 290 290 290 290 290 290 290 289 289 289 289 289 289 288 288 287 286 285 285 284 284 283 283 283 282 282 282 282 281 280 280 280 280 280 280 279 278 277 276 275 274 274 274 274 274 274 273 273 273 273 272 271 270 268 266 265 265 265 264 263 262 262 261 262 262 262 262 262 263 263 263 264 264 265 265 266 267 267 268
289 289 289 289 289 289 289 290 290 290 290 290 290 290 289 289 289 288 288 288 287 287 286 286 285 284 284 283 282 282 281 281 281 280 280 280 279 279 279 279 279 278 277 276 276 275 274 273 273 273 273 273 273 272 272 272 271 270 269 267 266 265 263 263 263 262 262 261 261 261 261 261 261 262 262 262 262 263 263 263 263 264 265 266 266 267
290 290 290 289 289 290 290 291 290 290 290 290 290 289 289 288 288 287 287 287 286 286 286 285 284 284 283 282 282 281 281 280 280 279 279 279 278 278 278 277 277 276 275 274 274 274 273 272 272 272 273 273 271 270 270 269 269 269 267 265 264 263 262 261 261 261 261 261 261 261 261 261 261 261 261 262 262 262 262 263 263 263 264 265 265 266
Wind_Speed
9 6 6 8 11 13 14 15 17 13 6 5 5 8 10 10 11 12 14 9 2 7 11 13 19 19 17 16 14 20 25 25 30 30 26 23 23 26 30 24 11 10 16 19 20 16 12 10 9 8 8 7 6 6 8 10 11 12 15 18 19 20 22 26 30 32 35 37 39 40 41 43 45 46 47 47 48 48 48 48 47 48 47 47 48 47
6 8 9 14 14 8 6 7 9 9 8 9 8 10 10 9 13 12 13 11 1 4 9 10 18 18 16 18 18 22 23 22 26 25 22 24 26 26 20 10 7 13 17 14 11 9 10 12 13 12 11 10 9 6 5 6 7 10 13 15 17 19 21 24 27 29 32 35 37 39 40 42 43 45 47 47 48 48 49 49 49 49 49 49 49 49
6 8 12 16 9 2 2 1 2 7 10 11 8 8 9 7 11 11 9 8 1 2 8 10 16 16 16 21 21 20 19 21 25 23 24 29 28 19 8 8 12 15 13 10 12 15 19 20 20 19 18 18 17 16 14 12 9 7 9 13 15 17 19 20 23 25 27 30 33 36 37 39 41 43 45 47 48 49 50 51 51 51 51 51 50 50
5 6 11 16 7 2 5 2 2 7 7 9 8 8 9 6 8 8 4 1 1 5 9 13 15 13 14 17 12 11 12 17 22 23 29 29 18 9 8 11 12 11 9 12 18 22 23 23 22 22 23 23 23 23 22 21 18 13 8 8 12 15 16 17 20 21 23 27 29 31 34 36 38 41 43 44 46 48 49 51 51 52 52 52 52 51
8 1 2 8 7 8 11 6 5 8 8 9 9 8 11 11 11 12 6 4 6 7 5 10 13 7 5 3 2 2 4 9 19 23 20 10 8 8 7 8 7 8 12 17 21 23 23 22 22 23 23 24 25 25 24 24 23 20 15 10 6 10 13 15 16 17 20 23 26 28 31 34 37 39 41 44 46 47 48 49 51 52 52 52 52 52
8 1 2 3 4 7 9 7 8 10 9 8 7 10 16 15 14 15 10 7 7 5 1 7 10 3 1 1 5 7 4 9 16 14 4 10 14 10 9 10 11 13 17 20 21 21 22 22 23 23 23 24 24 23 23 22 22 21 19 16 11 7 8 11 13 14 17 20 22 25 28 31 34 36 38 41 42 43 44 46 48 49 50 51 51 52
4 1 1 2 3 4 5 7 10 10 8 8 4 8 13 13 12 12 9 5 5 4 1 3 6 6 4 4 6 8 7 14 15 7 2 10 11 9 11 14 17 19 19 20 21 21 22 22 22 22 22 23 22 22 22 21 22 21 20 18 15 12 8 6 9 11 14 17 19 22 24 27 29 32 34 36 37 38 40 41 43 45 46 47 49 51
2 2 1 2 4 4 5 8 8 10 8 6 1 2 6 7 8 6 5 5 4 5 2 3 5 8 7 3 4 6 9 15 13 6 4 11 13 11 14 17 19 20 20 20 21 20 22 21 20 21 22 22 21 21 22 22 22 22 21 19 17 15 12 8 7 8 10 14 17 20 22 24 26 28 30 32 33 34 37 38 39 41 42 43 45 48
2 2 3 5 5 5 8 6 5 11 8 2 4 2 1 1 3 3 4 5 3 5 4 5 5 6 7 2 2 4 8 11 7 7 9 14 13 9 15 19 19 20 20 20 20 20 21 21 21 22 21 21 21 22 23 23 23 23 23 21 20 17 14 11 8 7 7 10 14 17 21 23 25 26 28 30 31 32 34 35 36 38 40 40 42 43
1 1 3 6 5 6 5 1 1 8 5 1 4 3 3 2 1 2 3 3 2 6 5 6 8 6 8 1 3 2 3 5 5 8 12 15 14 11 15 20 21 21 20 20 20 21 22 22 23 21 20 20 21 21 21 22 23 24 25 25 24 21 18 15 11 9 8 9 11 15 18 21 23 26 27 29 30 31 33 33 34 36 38 38 39 39
1 2 0 4 6 2 3 5 3 1 1 2 3 0 0 2 1 1 2 1 3 7 4 10 13 8 6 1 3 0 1 2 3 6 11 13 14 16 18 19 20 21 22 22 22 24 25 25 24 22 22 22 20 19 19 21 23 24 26 27 26 25 23 20 16 12 10 9 10 13 16 19 21 24 27 28 30 32 33 33 33 35 36 37 37 37
2 3 2 4 5 2 5 3 2 3 2 1 1 2 3 2 1 2 2 1 5 6 1 5 7 9 8 2 2 3 3 2 2 3 7 8 11 16 18 20 22 24 25 25 26 27 27 27 26 25 25 24 22 22 22 22 23 24 25 26 26 25 25 25 22 18 14 11 10 11 13 16 19 22 25 26 28 30 32 32 33 35 35 36 36 36
3 5 3 1 4 6 5 2 2 3 3 3 2 2 4 3 2 3 2 2 5 4 2 2 1 5 9 5 5 10 6 4 3 4 7 10 13 17 18 20 25 27 27 28 28 28 29 29 29 28 27 26 26 26 25 24 23 23 24 24 24 25 25 26 26 23 19 15 13 12 12 14 17 20 22 24 26 28 30 31 32 34 34 35 35 35
3 1 4 3 3 8 9 5 3 3 5 6 4 4 3 4 4 5 3 3 5 2 3 2 0 4 7 4 8 12 4 10 11 11 16 19 17 17 17 19 25 29 29 30 30 29 29 29 29 28 28 27 27 26 25 25 24 23 23 22 23 23 24 25 26 26 24 20 16 13 13 13 16 18 20 22 24 25 27 29 30 32 33 33 34 34
5 4 4 5 3 9 11 8 2 3 4 5 2 1 3 4 4 5 5 5 8 5 0 2 2 4 3 1 1 1 10 16 17 19 22 21 16 16 18 21 26 29 29 29 30 30 29 27 27 27 27 26 26 26 25 25 25 24 23 23 23 23 24 24 24 25 25 23 20 16 13 13 14 16 18 21 22 23 25 26 28 29 30 31 32 32
6 7 4 2 3 11 10 5 5 5 1 1 1 1 3 3 3 4 7 6 6 7 4 4 3 4 2 3 4 3 13 17 18 20 19 17 17 20 23 24 26 28 29 29 28 28 27 26 26 25 26 26 25 25 25 26 25 25 24 23 23 23 24 24 23 23 23 23 22 20 17 14 13 14 16 18 21 22 23 23 24 26 28 29 30 31
4 5 3 4 1 7 6 4 6 4 1 2 2 4 2 2 3 4 6 2 1 6 6 4 6 7 5 6 3 7 12 14 14 15 16 16 17 20 20 20 23 26 27 27 27 26 26 25 25 25 25 25 25 25 25 25 25 25 25 24 24 24 24 23 22 22 21 21 22 22 20 18 16 15 14 15 17 20 22 22 21 22 25 27 28 30
4 6 3 6 5 5 2 2 1 2 1 3 3 3 1 1 1 2 3 0 2 7 6 5 11 10 6 4 3 9 9 10 11 10 12 12 13 15 15 16 22 24 24 25 24 23 23 23 23 23 24 24 24 24 24 24 24 24 24 25 25 26 25 24 23 22 21 21 21 21 21 20 18 16 15 14 14 16 20 22 20 20 21 23 26 29
3 6 3 6 6 3 4 2 2 2 2 1 1 1 0 2 3 3 3 2 4 7 4 6 11 10 7 6 4 6 4 8 8 6 9 10 11 12 11 14 19 21 21 21 21 21 21 21 22 22 21 21 21 21 21 22 22 22 23 24 24 25 25 24 23 22 22 22 21 21 20 20 19 17 16 16 14 14 15 18 20 21 21 20 23 26
1 5 4 1 0 2 4 3 5 5 3 1 1 1 0 2 4 3 2 2 4 7 6 6 8 6 4 3 3 5 6 6 5 6 8 8 9 9 9 11 14 16 17 18 19 21 21 22 22 22 21 21 20 20 21 21 22 22 23 23 22 21 21 21 22 22 22 22 22 21 20 20 20 19 18 17 16 15 14 14 16 20 21 21 21 22
1 5 5 0 2 1 4 5 7 8 6 4 4 5 4 2 2 2 2 2 3 5 6 6 6 4 1 2 5 7 6 5 6 7 6 6 8 9 9 11 13 15 17 18 20 21 22 23 23 22 22 22 22 23 23 23 24 24 24 23 23 22 21 21 21 22 23 23 23 23 22 21 21 20 19 18 17 17 17 15 15 16 18 20 21 21
1 3 5 3 2 5 5 3 4 6 4 3 4 5 5 4 2 4 5 3 3 4 4 5 6 2 2 3 6 7 5 6 7 7 6 7 8 8 10 13 14 16 18 18 19 20 21 22 22 22 23 24 25 25 25 26 26 26 26 25 25 25 24 24 23 23 24 24 24 24 23 23 22 20 20 19 19 18 18 18 18 17 17 19 21 22
0 1 4 5 6 9 5 2 1 2 2 1 2 2 2 1 2 6 7 3 3 4 4 6 7 2 2 3 5 7 6 7 7 7 8 6 6 7 10 12 13 14 15 16 17 17 18 19 20 21 22 23 24 24 24 25 25 25 26 26 26 26 26 26 26 26 25 25 25 24 24 23 23 22 21 21 20 20 20 20 20 19 19 19 20 22
2 2 4 5 6 8 6 3 3 2 1 1 4 3 3 4 4 6 5 2 3 5 4 6 6 2 1 0 5 8 8 8 6 5 6 6 4 5 7 11 12 11 12 13 14 15 16 17 18 19 19 20 21 22 22 23 23 24 24 25 25 26 26 27 27 26 26 25 25 24 24 24 24 24 24 24 23 23 23 23 22 21 21 20 20 20
1 2 2 4 5 5 5 3 1 1 1 1 2 1 2 4 5 6 4 2 4 6 7 8 7 1 3 4 5 8 8 7 6 4 5 6 5 4 5 9 10 10 11 11 11 12 12 13 14 15 16 17 18 19 20 21 21 21 22 23 24 24 24 25 26 26 26 25 25 25 25 26 26 26 26 26 25 24 24 23 23 23 22 22 21 21
2 1 1 4 6 5 5 5 2 1 1 2 2 3 3 3 3 5 4 5 5 5 6 8 6 2 2 5 6 7 8 7 6 5 4 5 4 4 5 6 8 9 9 10 10 10 10 11 12 13 14 15 16 17 19 20 20 21 21 21 22 22 23 23 23 24 25 26 26 26 26 26 27 26 26 25 24 24 24 24 24 24 23 23 23 22
1 2 4 6 8 8 8 7 2 1 1 4 4 4 5 2 2 4 4 5 4 3 5 6 7 7 4 5 8 5 7 7 7 6 5 4 4 2 2 3 5 7 7 8 9 10 10 11 11 12 13 14 15 16 17 18 19 21 21 22 22 22 23 23 23 24 24 25 26 26 26 26 25 25 25 24 24 24 24 23 23 23 24 24 24 24
2 4 7 9 11 10 10 7 2 0 3 5 5 7 9 7 6 7 8 7 6 6 7 6 7 9 9 11 14 7 3 5 5 6 5 5 4 3 3 3 3 5 7 7 8 9 9 10 12 12 13 14 15 16 16 17 18 19 21 22 22 23 24 24 25 25 25 26 26 26 26 26 26 25 26 26 25 25 24 24 24 23 23 23 24 25
3 6 7 8 10 9 7 6 4 3 5 6 6 9 11 13 13 12 12 12 10 10 10 10 12 15 15 15 12 4 4 3 3 2 3 4 5 6 6 7 7 7 8 9 10 10 10 11 13 13 14 15 16 17 17 18 19 20 21 21 22 23 24 25 25 25 26 26 27 28 28 28 27 27 27 27 27 27 27 26 25 25 24 23 23 24
3 4 4 4 8 8 7 8 7 6 7 9 10 12 13 16 18 16 15 15 15 15 15 16 20 21 16 8 1 5 4 2 1 1 3 5 7 8 8 10 10 9 10 10 11 11 11 12 13 14 15 16 17 18 19 20 21 22 23 23 23 23 24 26 27 27 27 27 28 29 29 29 29 29 28 27 27 28 28 28 28 27 27 26 25 24
3 3 1 0 5 7 8 10 10 8 9 11 12 13 16 18 18 16 16 15 15 16 18 19 22 18 6 3 5 4 2 1 1 4 5 6 7 8 10 12 12 12 11 11 12 12 13 13 14 14 16 17 18 19 20 21 21 22 23 24 24 25 25 26 27 27 28 28 29 30 30 31 31 30 30 29 29 28 28 28 28 28 28 28 28 27
4 3 1 2 5 6 7 10 10 8 9 12 14 17 19 18 16 15 14 12 12 13 14 15 15 8 1 5 3 2 2 2 5 6 6 6 7 8 10 13 14 14 13 12 13 13 13 14 15 16 17 19 20 21 21 22 23 23 24 25 25 26 26 26 27 28 28 29 30 31 32 33 33 33 32 31 31 31 31 30 29 28 28 28 29 29
3 3 3 4 5 6 9 8 5 5 9 11 11 13 16 17 16 16 14 14 15 13 10 9 6 1 4 4 1 1 2 4 6 7 7 8 8 9 12 15 17 18 18 16 15 15 14 15 15 16 18 20 21 23 23 24 25 25 25 26 26 27 27 27 27 28 29 29 30 32 33 35 36 36 36 35 34 34 33 33 33 32 30 29 29 29
5 5 5 5 6 7 7 3 2 6 11 8 2 1 6 9 11 12 12 13 12 5 2 1 1 3 5 4 1 2 3 6 9 11 11 11 12 13 16 19 22 24 24 22 19 19 19 19 20 21 22 24 25 25 25 26 28 28 27 27 28 30 31 31 31 31 31 31 32 32 33 35 37 38 39 38 38 37 37 37 37 36 35 33 32 31
7 7 6 5 6 6 2 2 6 11 8 3 2 1 1 3 6 9 13 13 7 2 3 3 5 5 5 3 2 5 7 10 12 13 14 15 16 18 20 22 24 26 27 26 24 24 24 24 25 27 28 29 29 29 28 29 30 30 31 31 33 34 36 36 37 37 36 36 36 36 35 36 37 38 39 40 40 40 40 40 40 39 39 38 36 35
8 6 4 3 4 3 1 5 10 6 3 6 7 2 2 2 5 8 10 8 4 5 5 5 6 6 5 2 4 7 10 12 13 15 18 18 17 18 20 22 24 26 28 29 28 28 28 28 29 30 32 33 33 33 32 32 32 33 34 36 37 39 40 40 41 42 41 41 40 40 40 40 40 40 41 41 41 42 42 43 43 42 42 41 40 40
9 6 3 4 5 3 5 9 8 6 7 8 7 2 2 1 3 3 4 3 3 5 5 5 6 5 2 5 10 11 10 9 9 14 18 18 17 17 18 20 23 25 27 29 30 32 33 33 32 32 33 34 34 35 33 32 32 34 36 39 41 42 44 45 46 46 45 44 44 44 44 44 44 44 43 43 43 43 44 44 45 45 45 44 43 43
11 9 7 6 5 3 4 6 7 7 6 2 1 1 1 1 2 1 3 3 3 6 5 5 4 2 4 9 11 10 7 5 6 11 15 15 16 18 18 19 22 24 27 29 30 33 35 36 35 33 31 31 33 33 32 32 33 36 39 42 43 45 47 48 49 49 48 48 47 46 46 46 46 47 47 46 46 46 45 46 47 47 47 47 47 47
8 9 8 7 6 5 5 7 7 6 4 1 2 2 2 2 2 1 4 4 1 5 6 5 1 4 5 8 11 7 4 5 6 10 15 17 18 20 21 22 23 26 27 28 30 32 34 35 36 35 34 33 34 34 33 35 37 41 44 46 46 47 49 50 51 50 50 50 50 49 49 49 49 49 49 49 49 49 49 49 49 49 49 49 50 50
4 4 6 7 7 8 8 8 7 6 3 2 3 4 4 5 3 2 7 4 2 7 10 9 7 10 9 10 10 6 5 7 10 14 19 20 21 23 24 24 25 27 29 30 31 32 32 33 34 35 36 37 38 37 39 42 44 47 49 49 49 51 52 51 50 50 50 50 51 51 52 52 51 51 52 52 51 51 51 51 51 51 51 51 52 52
2 1 3 6 8 10 10 8 7 6 3 3 6 6 6 7 2 6 7 1 6 10 10 10 12 14 13 12 9 7 9 13 16 19 21 22 24 26 26 26 27 29 30 31 32 32 32 33 34 36 37 40 41 43 46 48 50 52 53 53 54 55 53 50 50 51 51 51 52 53 54 54 54 54 54 54 54 54 55 54 54 54 54 54 55 54
2 1 2 4 5 7 8 7 7 6 3 6 8 4 7 5 3 5 3 3 3 9 10 12 15 15 13 13 12 12 15 17 18 19 21 22 25 27 28 29 29 30 31 32 33 33 34 36 38 40 42 44 46 49 51 51 52 54 55 55 56 55 53 52 54 54 53 54 54 54 54 54 54 55 56 56 56 56 57 58 57 56 56 56 57 57
3 2 3 4 3 3 4 5 6 5 3 8 7 2 5 7 3 3 4 8 12 13 11 11 13 12 11 12 14 16 17 17 18 19 21 23 26 28 29 30 30 31 32 33 34 36 37 39 42 43 45 46 47 49 51 51 52 53 54 55 55 55 54 55 56 55 55 56 55 55 55 54 54 55 56 56 56 56 58 60 60 59 58 58 58 58
3 4 4 3 3 3 5 5 5 3 3 9 10 3 4 8 9 12 13 15 19 21 16 12 14 15 13 13 16 17 17 17 18 20 22 25 27 28 29 30 30 31 32 33 35 37 38 40 42 44 45 46 47 49 51 50 50 51 53 54 53 53 55 57 57 56 57 58 57 57 57 56 55 56 56 57 57 57 58 60 60 60 60 59 58 59
6 8 6 5 3 4 6 6 2 2 5 8 10 10 13 18 24 27 24 20 21 22 19 16 17 19 18 17 17 16 16 17 19 21 24 27 28 29 29 30 31 32 33 34 35 37 38 40 43 45 48 49 50 51 53 52 50 51 53 54 53 53 56 59 60 60 62 64 64 63 62 60 59 58 58 57 56 56 58 59 60 60 61 61 60 60
7 6 2 2 4 4 9 12 7 7 15 20 23 26 27 28 30 29 25 23 21 20 21 20 19 19 19 17 15 15 17 18 21 24 25 26 28 28 29 31 32 33 34 36 37 39 41 43 46 48 50 53 53 53 53 52 49 49 50 51 50 51 53 55 57 59 61 64 66 67 67 65 65 65 64 63 61 61 63 63 63 64 65 64 64 64
8 8 4 4 6 5 8 11 10 12 19 22 24 27 27 26 26 24 23 23 23 23 22 19 18 18 17 15 15 17 18 19 21 24 25 26 28 29 31 33 34 35 37 38 40 43 44 46 48 50 51 53 53 51 50 48 47 46 47 48 48 48 49 51 52 54 56 57 59 61 62 62 64 66 66 66 66 66 67 66 64 63 64 63 60 56
5 7 6 7 9 9 10 14 15 17 21 21 22 25 24 24 24 24 25 25 24 23 20 18 16 16 15 16 18 19 20 20 21 24 27 28 29 30 32 33 35 38 40 41 42 44 45 46 47 48 48 49 48 46 45 46 46 46 47 47 46 45 47 49 50 51 53 53 53 53 53 52 54 54 54 56 56 55 57 58 55 53 55 56 51 45
4 4 5 5 7 9 11 15 18 17 17 20 25 28 28 27 26 24 23 23 21 20 20 18 17 16 16 18 19 20 21 22 22 25 28 29 29 31 33 35 38 40 42 43 43 44 43 43 43 42 42 43 42 43 44 45 46 46 46 46 45 43 44 47 48 49 50 49 47 45 44 43 44 43 42 43 43 42 44 46 45 44 47 50 46 40
6 5 4 4 6 8 9 14 15 11 11 16 20 20 19 20 20 19 19 18 18 19 20 19 19 19 19 19 19 20 22 23 24 26 27 28 30 32 34 37 40 41 42 42 42 41 39 37 36 38 39 40 41 43 44 46 46 47 46 45 43 42 43 45 46 46 46 44 41 40 39 39 40 40 39 40 40 41 42 43 42 41 44 47 45 40
13 13 10 8 9 11 15 19 16 11 12 19 19 16 14 16 17 17 17 18 19 20 21 21 21 21 21 20 21 21 23 24 25 26 28 30 32 34 36 38 40 41 41 39 38 37 36 34 34 36 38 40 41 42 44 46 47 47 46 44 43 41 41 42 42 42 43 42 40 39 39 39 40 40 40 40 40 41 43 45 44 42 40 42 43 42
Wind_Direction
185 192 193 210 225 225 217 213 228 247 291 320 296 274 274 278 273 269 273 273 255 278 272 267 275 282 283 279 270 272 277 275 271 272 276 277 279 278 278 285 303 308 304 314 324 333 335 336 346 341 334 326 314 300 285 278 271 266 263 261 260 258 256 253 250 249 247 245 244 243 243 243 244 244 244 244 244 244 245 245 244 245 244 243 242 241
193 216 215 222 233 239 235 231 243 266 287 277 267 275 271 267 274 271 276 284 273 271 273 269 279 284 285 282 272 264 263 265 270 276 282 283 279 275 281 306 330 315 320 339 1 29 43 41 42 36 31 30 27 23 354 322 295 278 267 263 263 261 258 257 257 256 254 252 250 249 248 247 246 246 245 245 245 245 245 245 245 245 244 243 242 241
208 228 228 231 239 18 2 334 268 256 260 263 259 269 270 268 283 276 263 277 311 264 285 294 290 289 282 274 270 265 259 261 268 272 273 271 270 278 320 349 328 334 351 30 57 65 64 61 59 55 52 49 47 45 39 30 8 328 288 271 267 266 265 264 264 262 262 261 259 257 255 254 252 251 250 248 248 247 247 247 246 245 245 244 243 241
226 229 234 238 236 211 247 217 215 256 251 247 245 257 269 269 279 274 245 269 3 267 287 303 293 284 273 262 264 273 256 256 263 260 261 265 272 302 345 335 332 2 43 69 70 69 68 65 61 58 57 55 53 50 46 42 36 25 357 301 274 267 267 267 267 267 267 265 264 262 260 258 257 255 255 253 252 250 249 248 248 247 246 245 244 243
242 124 214 239 221 219 239 224 215 256 256 237 230 245 265 264 262 267 279 328 310 271 284 311 296 284 272 233 84 323 225 252 262 254 257 288 16 19 358 357 16 60 77 75 69 65 63 63 64 64 63 59 55 52 48 44 41 39 33 15 320 281 270 269 270 271 271 268 265 263 261 259 257 255 254 253 252 250 249 248 248 248 247 246 245 244
252 120 111 215 199 209 229 231 221 233 259 257 218 222 249 264 269 273 289 322 309 271 52 344 314 303 177 108 1 335 305 273 263 249 272 36 47 43 47 61 74 80 80 75 64 59 62 68 72 70 65 59 55 51 47 42 40 39 37 35 26 351 300 280 274 273 274 273 271 267 264 261 260 260 259 258 257 257 255 253 252 251 250 249 248 247
261 244 214 211 178 173 202 242 231 216 251 272 213 213 242 259 267 273 290 300 292 289 45 8 307 289 261 247 290 296 270 263 260 252 33 58 56 54 70 81 84 80 73 68 61 60 67 72 73 70 62 56 52 49 44 40 37 35 33 33 33 29 12 329 295 281 277 277 276 275 273 271 269 269 268 268 267 266 264 261 259 257 256 254 251 249
196 180 94 150 169 166 203 243 223 189 225 267 115 200 239 252 257 256 272 259 274 316 300 193 228 272 284 249 237 248 244 258 271 300 20 75 78 85 89 83 79 72 62 59 59 60 64 65 66 66 61 54 50 45 39 36 33 31 29 27 27 29 30 21 348 311 293 284 281 279 278 275 274 274 273 274 273 271 269 267 265 262 260 257 255 252
146 189 184 172 174 200 217 241 186 174 209 284 70 54 149 231 257 219 246 256 276 316 280 186 183 259 285 241 197 246 248 264 298 7 38 69 79 86 85 76 67 60 57 58 57 56 55 53 56 60 60 54 47 41 36 33 30 27 26 24 22 21 21 23 19 358 329 305 293 286 281 277 276 275 273 273 274 273 272 270 269 266 264 262 259 257
105 151 201 182 195 226 219 341 85 180 211 55 104 84 82 95 71 174 253 277 271 281 260 172 174 254 291 239 167 254 270 292 350 50 69 80 78 60 62 63 56 55 62 60 55 56 56 54 57 61 62 57 49 42 37 33 29 25 23 21 21 19 15 12 10 6 357 335 313 299 291 285 282 278 275 274 274 273 272 272 272 270 268 266 264 262
141 87 144 207 224 243 99 60 27 153 109 79 135 76 94 171 116 162 251 304 269 270 230 173 184 220 283 315 135 241 316 318 2 58 77 87 76 57 53 54 53 60 67 64 59 60 60 59 61 61 61 60 54 48 41 34 30 26 21 19 18 19 17 14 8 360 353 344 330 315 304 297 290 284 280 278 277 275 274 275 275 274 273 271 270 267
192 188 207 223 215 148 100 103 67 86 104 157 207 313 289 244 212 206 178 151 252 266 195 160 190 212 238 252 62 338 311 256 257 22 53 78 69 55 53 55 58 63 63 61 60 59 57 56 55 55 55 55 52 49 44 38 33 27 22 19 18 18 18 16 13 6 355 343 333 323 312 304 296 288 284 282 280 278 277 277 276 276 276 276 275 273
212 207 197 212 197 178 170 174 133 126 160 197 209 256 276 282 267 242 221 206 246 262 58 35 342 230 243 261 281 283 303 28 34 24 57 77 68 56 54 55 59 61 58 57 56 55 53 51 49 48 48 47 46 44 42 39 34 29 25 22 21 21 19 16 14 11 6 354 338 325 315 307 298 291 287 285 283 281 280 279 277 277 278 278 278 278
268 232 157 173 203 185 188 197 204 190 175 187 200 200 233 277 283 274 274 268 268 296 61 46 336 252 262 266 255 261 317 47 58 70 75 74 69 62 58 56 59 61 59 55 53 53 52 50 47 47 45 44 43 41 40 37 34 32 29 25 23 23 20 17 13 12 11 7 356 339 324 316 307 298 291 287 285 284 284 283 281 280 280 279 280 281
265 286 183 181 157 162 189 214 196 106 151 189 195 187 245 264 269 277 277 271 281 294 156 146 181 243 256 57 241 296 54 60 69 76 76 75 74 69 61 55 56 58 59 57 55 54 53 52 50 49 47 44 42 40 38 37 37 35 32 28 24 21 19 16 13 12 12 12 9 359 345 333 322 315 306 297 290 286 285 287 286 284 284 283 282 283
245 261 189 146 130 157 182 202 145 110 133 209 97 131 256 226 188 251 261 260 292 297 254 194 220 250 255 297 266 115 77 72 72 69 68 65 62 59 53 48 51 55 58 58 57 55 54 53 52 50 50 48 44 41 38 37 36 34 33 32 27 23 19 14 12 11 11 12 11 9 4 354 342 332 322 311 302 294 289 288 288 288 288 287 286 286
248 261 144 95 171 187 186 165 161 185 205 137 166 200 218 159 157 231 257 265 320 279 264 229 251 262 266 281 264 118 98 84 71 60 58 54 50 55 49 43 51 56 58 59 58 57 55 53 52 50 48 46 45 44 42 39 37 35 36 35 32 28 23 17 13 10 8 7 7 7 7 2 356 346 334 320 307 300 294 289 288 289 289 288 288 287
255 275 181 148 211 224 186 133 180 239 153 133 190 206 146 65 119 218 250 207 210 252 263 256 264 270 266 267 108 109 101 86 79 70 66 58 53 58 50 45 54 59 60 61 59 56 55 52 50 47 44 42 41 40 40 38 37 35 33 29 26 25 25 24 20 16 12 9 6 5 4 3 359 351 344 331 313 301 295 293 290 287 286 287 288 287
246 272 248 178 206 182 120 192 239 204 184 199 267 250 92 249 230 189 203 216 223 243 250 242 259 268 258 241 165 126 87 73 82 79 69 60 56 59 55 54 58 61 62 62 60 57 55 51 48 45 42 38 35 31 30 28 26 23 22 20 19 19 20 21 19 18 16 14 13 10 6 3 359 353 349 343 330 313 302 301 300 295 291 287 287 288
183 258 271 149 196 102 117 202 217 195 175 99 299 282 207 257 253 211 181 196 223 247 253 235 243 253 254 244 165 108 70 64 72 68 63 59 61 64 62 60 57 58 58 55 54 52 48 46 44 42 40 37 34 29 25 21 18 17 17 18 19 17 15 13 13 13 13 14 15 13 9 5 0 356 354 349 341 329 318 312 309 305 301 294 288 287
180 243 249 338 30 203 191 200 205 207 200 184 209 222 206 201 263 266 232 190 211 245 248 236 236 233 17 57 104 98 76 70 71 74 73 64 66 62 56 56 52 49 47 43 41 39 36 36 34 34 33 30 27 25 23 21 19 17 17 16 15 14 13 12 11 11 10 10 10 10 8 5 1 358 356 353 349 342 334 325 317 309 301 295 291 286
273 257 253 253 246 233 225 194 207 217 205 197 210 213 217 203 190 244 237 195 205 239 235 245 248 220 43 40 99 111 105 102 98 96 87 65 60 57 51 51 49 46 44 39 36 33 30 28 25 22 20 17 16 17 16 15 13 12 12 11 11 11 12 12 12 11 10 8 6 5 4 3 0 359 357 354 351 349 344 338 331 321 308 299 294 289
327 284 277 259 248 259 268 68 41 288 64 48 250 227 265 242 186 236 241 221 225 229 221 248 251 215 28 15 93 112 112 106 104 103 102 91 75 69 62 57 52 45 40 35 30 27 23 18 14 11 10 8 9 8 7 6 6 6 5 3 4 3 3 3 3 3 3 3 3 2 360 359 358 359 358 357 354 350 346 343 339 332 323 312 302 293
175 218 266 260 255 271 268 120 81 16 75 245 250 228 244 250 238 246 256 277 256 231 221 244 245 196 130 124 114 116 113 105 103 110 120 124 116 93 72 60 53 44 36 29 23 19 15 11 7 5 2 360 358 357 357 357 357 356 355 354 353 352 352 352 352 353 354 354 355 355 354 353 353 353 354 356 356 353 348 344 340 336 332 326 316 305
262 256 291 284 267 265 252 212 141 83 102 273 277 281 295 282 280 276 265 268 250 223 225 247 256 211 139 158 138 127 125 117 111 116 126 129 126 110 77 59 48 38 32 25 18 14 9 5 2 358 356 354 351 351 351 351 351 351 350 349 347 347 347 347 346 346 346 345 345 344 344 344 344 344 346 348 349 349 348 345 341 338 335 331 327 321
276 267 243 275 269 259 266 271 260 91 35 328 315 334 350 356 322 304 276 257 253 217 221 249 267 294 120 164 176 157 142 137 131 125 123 123 114 90 68 50 35 28 23 16 14 12 7 4 1 357 355 354 353 352 350 349 350 350 350 350 348 346 345 344 342 341 339 339 338 338 338 338 338 338 339 339 339 339 341 342 340 339 336 333 331 329
234 252 225 248 266 271 285 290 289 75 305 282 294 304 304 298 298 306 275 261 294 308 270 266 278 291 281 232 237 208 143 142 154 155 154 152 144 125 87 44 25 17 9 7 8 4 3 4 1 359 358 356 355 354 351 350 349 347 347 347 347 346 344 343 342 341 340 339 338 338 338 337 336 336 335 335 333 331 331 332 333 335 335 333 331 329
229 261 237 241 255 261 274 280 269 41 258 255 269 277 278 276 267 263 256 265 307 309 276 271 280 280 276 273 278 283 118 129 145 155 169 183 196 212 235 271 318 340 344 350 353 352 352 353 354 354 354 353 352 350 348 347 345 343 342 342 341 341 341 340 339 340 339 338 338 337 337 336 336 334 333 331 330 329 327 325 325 326 328 330 329 328
238 266 252 253 263 263 272 275 259 263 265 259 260 264 273 276 269 263 262 269 278 273 270 286 287 277 276 281 288 327 82 102 104 121 178 208 228 236 249 264 277 305 326 332 337 340 342 343 345 346 347 347 346 345 344 342 341 340 338 338 337 336 336 335 335 335 335 335 334 333 333 333 332 332 331 329 327 326 325 324 322 321 321 322 323 324
227 253 243 257 271 270 272 274 271 276 276 270 265 263 268 269 268 269 269 266 263 261 265 274 272 268 273 286 336 91 95 102 87 274 245 242 249 246 250 261 268 285 310 321 325 328 330 333 336 337 339 341 339 339 339 337 336 336 335 334 334 332 332 331 329 330 330 329 329 328 327 326 326 327 327 326 325 324 324 323 322 321 320 319 318 318
264 248 136 255 277 271 271 276 281 283 278 274 272 266 262 262 264 267 266 262 259 258 257 257 259 262 270 72 92 115 134 152 261 268 258 251 255 254 257 263 264 269 285 302 312 317 320 322 325 328 330 332 333 332 332 331 330 330 330 329 328 327 326 325 324 324 323 323 323 322 320 320 319 320 320 321 322 321 321 321 321 321 320 320 319 317
288 278 20 323 281 268 273 282 289 295 283 272 266 260 255 254 254 253 252 252 253 255 255 253 256 260 155 100 93 154 180 253 283 287 287 279 270 268 271 274 273 270 274 288 303 313 319 322 324 324 322 322 323 323 324 325 325 325 325 324 322 321 319 318 317 316 316 317 317 316 316 314 314 314 315 316 316 316 317 318 318 318 318 318 319 318
249 264 287 289 277 270 276 282 305 320 288 266 254 251 250 249 251 251 247 249 251 254 260 262 264 250 126 131 97 141 203 276 299 301 301 303 295 285 287 292 293 289 284 286 297 307 315 322 325 325 324 323 321 319 318 317 318 320 320 317 315 313 312 311 311 310 310 310 310 310 310 309 309 309 310 311 311 312 312 313 314 314 315 314 314 314
226 239 254 257 260 270 282 320 348 273 264 263 262 242 256 260 263 261 255 253 252 252 278 278 117 118 137 140 79 342 311 308 308 303 303 308 305 299 299 301 303 303 297 290 291 299 305 312 317 319 320 322 322 321 318 316 315 315 314 313 311 310 310 311 310 308 307 306 306 304 303 302 302 303 304 306 307 307 308 308 309 310 311 311 311 310
236 239 245 246 253 271 328 18 272 257 251 299 360 72 315 297 280 270 267 263 253 172 128 141 143 152 158 154 315 315 313 307 298 293 298 306 308 308 308 308 310 310 304 296 292 295 299 304 307 310 313 314 316 317 317 317 316 314 312 311 311 310 311 312 310 309 307 306 305 304 302 300 298 297 298 299 300 302 302 303 304 304 305 306 307 307
239 240 238 227 231 257 259 234 249 266 335 311 280 219 130 245 256 264 271 265 220 185 194 187 168 165 172 225 314 314 306 300 290 287 295 305 312 312 311 312 315 314 310 305 298 294 295 299 303 306 309 310 310 311 313 315 315 312 310 310 310 309 310 310 309 308 306 305 304 304 304 302 299 296 295 295 295 296 297 298 299 299 300 300 300 301
227 231 229 229 225 228 236 236 249 303 319 291 271 234 127 214 260 279 292 281 186 182 195 180 171 176 219 315 323 320 308 299 291 288 294 303 312 313 312 313 316 316 315 311 303 295 293 294 298 301 303 304 304 306 308 310 308 307 307 308 308 308 308 308 307 306 305 304 304 303 303 302 299 297 295 294 293 293 293 294 294 295 296 297 296 296
222 224 218 231 241 219 227 250 261 274 280 274 220 243 236 283 321 329 299 296 166 173 178 146 151 220 310 318 314 311 303 291 285 288 295 302 309 311 311 311 314 317 316 313 309 302 294 289 289 292 295 298 299 300 301 302 302 304 305 305 306 307 307 306 305 305 304 304 303 302 301 299 298 296 294 293 292 291 291 291 291 291 292 293 294 293
214 226 220 230 248 232 229 247 248 251 267 107 144 198 193 185 170 209 287 307 101 174 180 143 164 266 266 282 288 287 280 278 280 292 300 305 307 307 308 310 314 315 313 312 312 307 298 290 288 288 291 294 296 297 298 299 302 304 305 306 308 307 306 305 305 304 303 302 301 299 298 296 295 294 292 291 290 290 289 289 288 288 288 289 290 290
176 216 215 220 234 235 239 246 245 259 281 156 191 223 181 143 123 273 280 286 150 184 188 183 233 263 257 262 270 255 246 271 285 297 302 304 302 302 306 311 312 310 310 310 309 306 301 296 292 291 291 293 295 298 300 303 306 307 307 308 308 306 306 306 304 302 300 298 297 295 294 293 292 291 290 289 288 287 287 286 286 286 286 287 287 287
160 215 222 221 231 235 239 245 252 265 256 203 237 236 160 124 109 262 267 220 159 196 212 214 237 260 266 262 255 245 257 272 281 290 297 299 299 301 304 307 306 305 305 305 304 305 304 300 297 295 295 296 298 301 304 307 308 307 306 307 306 304 305 304 301 299 297 295 294 292 291 290 289 288 288 287 286 285 284 284 283 283 283 284 284 284
170 181 235 223 227 236 243 251 259 270 244 227 250 235 153 160 264 252 264 347 244 240 255 246 241 252 260 258 259 268 275 279 282 287 294 295 297 300 303 303 303 303 302 302 302 304 304 302 300 299 298 298 300 302 304 306 306 304 303 302 301 301 302 300 297 296 295 293 291 290 289 288 287 286 285 284 284 283 282 282 281 281 281 281 282 282
179 184 231 215 201 223 245 245 250 271 234 200 210 189 160 191 247 303 308 307 297 287 278 262 259 265 260 259 271 278 280 283 286 289 292 294 296 299 300 301 302 302 303 303 303 304 304 303 301 300 299 299 300 302 302 302 302 300 299 299 298 299 298 296 295 295 293 291 290 288 287 286 285 284 283 282 282 282 281 280 280 279 279 279 280 281
189 202 235 229 185 193 228 226 216 252 231 183 178 193 218 224 264 294 296 298 302 301 298 295 294 292 284 280 282 282 282 286 289 291 294 295 297 298 298 300 301 302 304 304 303 303 303 302 302 301 301 301 302 301 301 301 302 300 298 298 298 297 295 293 293 292 291 289 288 286 285 284 284 283 282 282 282 282 281 280 280 280 279 279 280 280
205 208 231 251 217 198 246 254 197 190 247 222 217 249 268 272 281 288 290 291 294 297 299 299 295 293 292 289 284 282 283 287 290 293 295 295 296 297 299 302 304 306 306 305 305 305 304 304 304 303 303 303 303 301 301 302 303 302 300 300 300 298 297 296 294 293 291 289 287 286 285 284 283 283 282 282 282 282 282 281 282 282 281 281 281 281
232 222 216 271 247 239 261 260 241 245 262 263 265 270 274 279 283 286 287 286 286 290 293 291 289 289 289 285 282 285 288 290 293 295 295 297 299 301 304 307 308 309 308 307 308 307 307 306 305 304 303 303 302 303 303 304 305 305 305 305 305 304 303 301 299 296 292 290 288 285 284 284 283 282 282 281 281 281 281 282 283 283 283 283 283 282
243 223 200 232 246 249 260 254 240 248 259 263 269 274 274 276 278 279 281 283 285 288 288 287 285 283 280 280 285 290 292 295 297 298 300 302 304 307 309 310 310 310 310 309 309 308 308 307 306 305 304 304 304 306 306 307 309 310 311 312 312 311 309 306 303 300 296 294 292 289 288 287 286 285 285 285 284 284 283 283 283 283 283 283 281 280
226 198 198 228 239 240 255 263 260 259 261 262 265 269 271 272 274 275 277 279 281 283 283 282 280 278 280 287 292 294 297 299 300 302 304 305 306 308 310 310 310 310 309 308 307 307 308 308 307 306 306 306 308 310 311 313 314 315 316 317 317 316 313 310 308 306 303 301 300 298 297 295 293 292 291 290 288 286 285 284 283 281 280 280 277 273
198 173 182 211 236 241 252 264 265 265 265 262 260 262 267 270 271 271 272 274 275 277 277 277 278 281 287 292 295 296 298 300 302 304 304 305 306 309 309 309 308 307 306 307 308 309 310 309 308 308 308 310 315 317 318 318 319 320 321 321 319 317 314 312 311 309 307 305 303 300 300 298 296 295 293 291 289 286 283 283 281 278 278 277 273 267
197 219 203 196 239 249 245 247 248 253 268 266 261 262 264 266 265 263 264 266 267 269 272 275 280 286 290 292 295 298 299 301 303 303 303 305 307 308 308 307 306 306 307 309 310 310 310 310 311 312 314 318 322 323 323 323 324 326 325 322 319 317 314 312 310 308 306 303 300 297 297 296 294 293 291 289 288 287 284 283 281 278 278 278 275 270
212 228 221 214 236 246 248 247 238 233 257 268 270 270 265 261 262 261 260 263 264 267 272 277 281 286 290 292 295 297 298 300 301 302 304 306 306 306 306 306 306 308 310 312 313 312 312 315 319 321 323 325 327 327 327 327 328 328 326 322 319 315 312 309 307 303 302 301 298 295 295 293 291 291 289 287 286 286 286 286 285 282 279 279 279 277